Flag for Switzerland Weather past 2 weeks in Kloten, Zurich, Switzerland

Now
52 °F

Broken clouds.


Feels Like: 45 °F
Forecast: 41 / 53 °F
Wind: 23 mph from West

Location: Zurich-Kloten

Current Time: Mar 30, 2015 at 4:01:58 PM

Latest Report: Mar 30, 2015 at 3:20 PM


Visibility: N/A

Pressure: 29.86 "Hg

Humidity: 72%

Dew point: 43 °F

Location of KlotenLocation

Historic Weather in Kloten — Graph

°F

Kloten temperature yesterday

Maximum temperature yesterday: 54 °F (at 10:50 AM)
Minimum temperature yesterday: 46 °F (at 12:20 AM)
Average temperature yesterday: 50 °F

Past Weeks' High & Low Weather Summary

 TemperatureHumidityPressure
High64 °F (Mar 17, 3:20 PM)100% (Mar 16, 6:20 AM)30.27 "Hg (Mar 16, 6:20 AM)
Low28 °F (Mar 24, 6:50 AM)32% (Mar 18, 4:20 PM)29.59 "Hg (Mar 25, 12:20 PM)
Average46 °F74%30.01 "Hg
* Reported Mar 15 1:20 PM — Mar 30 2:50 PM, Kloten, Weather by CustomWeather, © 2015

Note: Actual official high and low records may vary slightly from our data, if they occured in-between our weather recording intervals... More about our weather records

Advertising

Kloten weather history for previous 24 hours

 ConditionsComfort  
Time TempWeatherWind HumidityBarometerVisibility
2:50 PM
Mon, Mar 30
52 °FScattered showers. Broken clouds.20 mph67%29.83 "HgN/A
2:20 PM54 °FScattered showers. Broken clouds.24 mph67%29.83 "HgN/A
1:50 PM52 °FScattered showers. Partly sunny.25 mph72%29.83 "HgN/A
1:20 PM52 °FScattered showers. Broken clouds.24 mph72%29.80 "HgN/A
12:50 PM50 °FScattered showers. Broken clouds.25 mph82%29.77 "Hg5 mi
12:20 PM50 °FDrizzle. Broken clouds.14 mph88%29.77 "Hg4 mi
11:50 AM50 °FSprinkles. Broken clouds.16 mph88%29.77 "Hg6 mi
11:20 AM48 °FRain showers. Broken clouds.14 mph94%29.74 "Hg4 mi
10:50 AM50 °FSprinkles. Broken clouds.12 mph88%29.74 "Hg5 mi
10:20 AM48 °FLots of rain. Partly sunny.15 mph94%29.74 "Hg3 mi
9:50 AM48 °FRain showers. Broken clouds.18 mph94%29.71 "Hg3 mi
9:20 AM50 °FRain showers. Broken clouds.20 mph88%29.71 "Hg4 mi
8:50 AM50 °FSprinkles. Broken clouds.22 mph82%29.68 "HgN/A
8:20 AM50 °FScattered showers. Broken clouds.22 mph82%29.68 "HgN/A
7:50 AM50 °FScattered showers. Partly cloudy.22 mph82%29.68 "HgN/A
7:20 AM48 °FLight rain. Partly cloudy.20 mph87%29.68 "HgN/A
6:50 AM48 °FRain. Partly cloudy.18 mph87%29.68 "Hg4 mi
6:20 AM48 °FRain. Partly cloudy.21 mph87%29.68 "Hg4 mi
5:50 AM48 °FRain. Passing clouds.21 mph87%29.65 "Hg4 mi
5:20 AM48 °FRain. Partly cloudy.21 mph87%29.65 "Hg4 mi
4:50 AM48 °FRain. Partly cloudy.22 mph87%29.65 "Hg4 mi
4:20 AM48 °FRain. Partly cloudy.22 mph87%29.68 "Hg4 mi
3:50 AM48 °FRain. Partly cloudy.18 mph87%29.68 "Hg4 mi
3:20 AM48 °FRain. Partly cloudy.20 mph87%29.68 "Hg5 mi
2:50 AM50 °FRain. Partly cloudy.21 mph82%29.71 "Hg5 mi
1:50 AM50 °FRain. Partly cloudy.21 mph82%29.71 "Hg4 mi
1:20 AM50 °FRain. Passing clouds.20 mph82%29.74 "Hg4 mi
12:50 AM50 °FRain. Partly cloudy.15 mph82%29.74 "Hg5 mi
12:20 AM50 °FRain. Partly cloudy.17 mph88%29.74 "Hg5 mi
11:50 PM
Sun, Mar 29
48 °FLight rain. Partly cloudy.15 mph94%29.74 "Hg5 mi
11:20 PM48 °FRain showers. Partly cloudy.16 mph94%29.77 "Hg4 mi
10:50 PM48 °FRain showers. Partly cloudy.20 mph94%29.77 "Hg4 mi
10:20 PM50 °FRain showers. Partly cloudy.20 mph82%29.77 "Hg4 mi
9:50 PM50 °FSprinkles. Passing clouds.18 mph82%29.77 "HgN/A
9:20 PM50 °FSprinkles. Passing clouds.18 mph88%29.77 "HgN/A
8:50 PM50 °FSprinkles. Passing clouds.16 mph82%29.80 "HgN/A
8:20 PM50 °FSprinkles. Partly sunny.17 mph82%29.80 "HgN/A
7:50 PM50 °FSprinkles. Partly sunny.17 mph82%29.80 "HgN/A
7:20 PM50 °FSprinkles. Partly sunny.16 mph82%29.83 "HgN/A
6:50 PM52 °FSprinkles. Partly sunny.18 mph72%29.83 "HgN/A
6:20 PM50 °FSprinkles. Partly sunny.14 mph82%29.83 "HgN/A
5:50 PM50 °FPartly sunny.18 mph76%29.86 "HgN/A
5:20 PM50 °FSprinkles. Broken clouds.18 mph82%29.86 "HgN/A
4:50 PM50 °FSprinkles. Broken clouds.20 mph76%29.86 "HgN/A
4:20 PM50 °FPartly sunny.21 mph71%29.89 "HgN/A
Weather by CustomWeather, © 2015

See weather overviewHow to use our weather pages